| time (UTC) | temp C | wind direction | speed KPH | gust KPH | rain 1hr cm | rain 24hr cm | rain mn cm | humidity % | barometer mb |
| 20260504192345 | 25 | 240 | 3.2 | 16.1 | 0.00 | 0.18 | 0.18 | 49 | 1002.7 |
| 20260504191912 | 25 | 243 | 8.0 | 16.1 | 0.00 | 0.18 | 0.18 | 47 | 1002.9 |
| 20260504191631 | 25 | 207 | 3.2 | 16.1 | 0.00 | 0.18 | 0.18 | 48 | 1002.2 |
| 20260504191357 | 25 | 238 | 4.8 | 16.1 | 0.00 | 0.18 | 0.18 | 47 | 1002.8 |
| 20260504190842 | 26 | 232 | 8.0 | 19.3 | 0.00 | 0.18 | 0.18 | 47 | 1002.9 |
| 20260504190347 | 26 | 244 | 4.8 | 19.3 | 0.00 | 0.18 | 0.18 | 49 | 1002.7 |
| 20260504190143 | 25 | 257 | 3.2 | 14.5 | 0.00 | 0.18 | 0.18 | 49 | 1002.2 |
| 20260504185856 | 25 | 195 | 3.2 | 14.5 | 0.00 | 0.18 | 0.18 | 49 | 1002.8 |
| 20260504185341 | 25 | 242 | 3.2 | 12.9 | 0.00 | 0.18 | 0.18 | 49 | 1002.8 |
| 20260504184847 | 25 | 236 | 4.8 | 16.1 | 0.00 | 0.18 | 0.18 | 48 | 1002.8 |
| 20260504184610 | 25 | 252 | 3.2 | 16.1 | 0.00 | 0.18 | 0.18 | 48 | 1002.1 |
| 20260504184352 | 25 | 314 | 4.8 | 16.1 | 0.00 | 0.18 | 0.18 | 48 | 1002.7 |
| 20260504183919 | 25 | 236 | 4.8 | 12.9 | 0.00 | 0.18 | 0.18 | 49 | 1002.7 |
| 20260504183343 | 25 | 150 | 6.4 | 20.9 | 0.00 | 0.18 | 0.18 | 48 | 1002.7 |
| 20260504183108 | 25 | 239 | 4.8 | 20.9 | 0.00 | 0.18 | 0.18 | 51 | 1002.1 |
| 20260504182848 | 25 | 247 | 6.4 | 20.9 | 0.00 | 0.18 | 0.18 | 48 | 1002.5 |
| 20260504182353 | 25 | 259 | 4.8 | 14.5 | 0.00 | 0.18 | 0.18 | 49 | 1002.6 |
| 20260504181858 | 25 | 227 | 3.2 | 17.7 | 0.00 | 0.18 | 0.18 | 48 | 1002.8 |
| 20260504181622 | 25 | 246 | 4.8 | 17.7 | 0.00 | 0.18 | 0.18 | 49 | 1002.4 |
| 20260504181343 | 25 | 238 | 8.0 | 19.3 | 0.00 | 0.18 | 0.18 | 47 | 1003.1 |
| 20260504180850 | 25 | 200 | 4.8 | 17.7 | 0.00 | 0.18 | 0.18 | 47 | 1003.1 |
| 20260504180356 | 25 | 222 | 6.4 | 17.7 | 0.00 | 0.18 | 0.18 | 47 | 1003.2 |
| 20260504180005 | 25 | 246 | 6.4 | 20.9 | 0.00 | 0.18 | 0.18 | 47 | 1002.6 |
| 20260504175904 | 25 | 252 | 6.4 | 20.9 | 0.00 | 0.18 | 0.18 | 48 | 1003.2 |
| 20260504175410 | 25 | 223 | 9.7 | 20.9 | 0.00 | 0.18 | 0.18 | 46 | 1003.2 |
| 20260504174854 | 25 | 251 | 3.2 | 19.3 | 0.00 | 0.18 | 0.18 | 48 | 1003.2 |
| 20260504174619 | 25 | 234 | 4.8 | 19.3 | 0.00 | 0.18 | 0.18 | 49 | 1002.7 |
| 20260504174359 | 25 | 248 | 4.8 | 17.7 | 0.00 | 0.18 | 0.18 | 49 | 1003.3 |
| 20260504173847 | 25 | 253 | 4.8 | 17.7 | 0.00 | 0.18 | 0.18 | 49 | 1003.4 |
| 20260504173352 | 25 | 246 | 4.8 | 12.9 | 0.00 | 0.18 | 0.18 | 48 | 1003.3 |
| 20260504173116 | 25 | 244 | 4.8 | 12.9 | 0.00 | 0.18 | 0.18 | 48 | 1002.7 |
| 20260504172857 | 25 | 273 | 6.4 | 12.9 | 0.00 | 0.18 | 0.18 | 48 | 1003.4 |
| 20260504172343 | 25 | 239 | 4.8 | 12.9 | 0.00 | 0.18 | 0.18 | 50 | 1003.4 |
| 20260504171910 | 25 | 249 | 3.2 | 16.1 | 0.00 | 0.18 | 0.18 | 50 | 1003.5 |
| 20260504171613 | 24 | 198 | 3.2 | 16.1 | 0.00 | 0.18 | 0.18 | 49 | 1003.0 |
| 20260504171356 | 25 | 239 | 3.2 | 14.5 | 0.00 | 0.18 | 0.18 | 49 | 1003.6 |
| 20260504170840 | 25 | 252 | 4.8 | 19.3 | 0.00 | 0.18 | 0.18 | 50 | 1003.7 |
| 20260504170346 | 25 | 225 | 6.4 | 17.7 | 0.00 | 0.18 | 0.18 | 48 | 1003.7 |
| 20260504170145 | 24 | 229 | 3.2 | 17.7 | 0.00 | 0.18 | 0.18 | 50 | 1003.2 |
| 20260504160421 | 23 | 244 | 4.8 | 16.1 | 0.00 | 0.18 | 0.18 | 52 | 1004.2 |
| 20260504160136 | 23 | 242 | 4.8 | 16.1 | 0.00 | 0.18 | 0.18 | 52 | 1003.6 |
| 20260504150846 | 21 | 246 | 3.2 | 11.3 | 0.00 | 0.18 | 0.18 | 60 | 1004.2 |
| 20260504150351 | 20 | 254 | 4.8 | 11.3 | 0.00 | 0.18 | 0.18 | 61 | 1004.3 |
| 20260504140855 | 17 | 229 | 4.8 | 11.3 | 0.00 | 0.18 | 0.18 | 71 | 1004.7 |
| 20260504140341 | 17 | 221 | 4.8 | 9.7 | 0.00 | 0.18 | 0.18 | 72 | 1004.7 |
| 20260504140137 | 17 | 244 | 1.6 | 11.3 | 0.00 | 0.18 | 0.18 | 73 | 1004.3 |
| 20260504130356 | 16 | 209 | 0.0 | 3.2 | 0.00 | 0.18 | 0.18 | 77 | 1004.9 |
| 20260504130151 | 16 | 209 | 0.0 | 3.2 | 0.00 | 0.18 | 0.18 | 77 | 1004.4 |
| 20260504110400 | 13 | 253 | 4.8 | 12.9 | 0.00 | 0.18 | 0.18 | 87 | 1003.6 |
| 20260504100351 | 12 | 66 | 0.0 | 1.6 | 0.00 | 0.18 | 0.18 | 87 | 1005.8 |
| 20260504100146 | 12 | 66 | 0.0 | 1.6 | 0.00 | 0.18 | 0.18 | 87 | 1005.5 |
| 20260504090138 | 12 | 159 | 0.0 | 3.2 | 0.03 | 0.18 | 0.18 | 87 | 1006.3 |
| 20260504081855 | 13 | 153 | 0.0 | 0.0 | 0.00 | 0.15 | 0.15 | 87 | 1007.1 |
| 20260504081618 | 12 | 153 | 0.0 | 0.0 | 0.03 | 0.15 | 0.15 | 87 | 1006.9 |
| 20260504081341 | 13 | 153 | 0.0 | 0.0 | 0.03 | 0.15 | 0.15 | 87 | 1007.3 |
| 20260504080846 | 13 | 153 | 0.0 | 1.6 | 0.03 | 0.15 | 0.15 | 87 | 1007.4 |
| 20260504080351 | 13 | 153 | 0.0 | 4.8 | 0.03 | 0.15 | 0.15 | 87 | 1007.5 |
| 20260504080150 | 13 | 153 | 0.0 | 4.8 | 0.03 | 0.15 | 0.15 | 87 | 1007.0 |
| 20260504070347 | 13 | 108 | 0.0 | 1.6 | 0.00 | 0.13 | 0.13 | 85 | 1007.8 |
| 20260504070144 | 13 | 108 | 0.0 | 1.6 | 0.00 | 0.13 | 0.13 | 85 | 1007.5 |
| 20260504060135 | 13 | 108 | 0.0 | 1.6 | 0.13 | 0.13 | 0.13 | 81 | 1008.4 |
| 20260504050349 | 14 | 360 | 1.6 | 3.2 | 0.00 | 0.00 | 0.00 | 73 | 1008.5 |
| 20260504050144 | 13 | 360 | 0.0 | 1.6 | 0.00 | 0.00 | 0.00 | 73 | 1008.3 |
| 20260504045854 | 14 | 360 | 0.0 | 0.0 | 0.00 | 0.00 | 0.00 | 72 | 1008.8 |
| 20260504045341 | 14 | 360 | 0.0 | 0.0 | 0.00 | 0.00 | 0.00 | 73 | 1008.8 |
| 20260504044848 | 14 | 360 | 0.0 | 1.6 | 0.00 | 0.00 | 0.00 | 72 | 1008.6 |
| 20260504044613 | 14 | 360 | 0.0 | 1.6 | 0.00 | 0.00 | 0.00 | 73 | 1008.4 |
| 20260504044355 | 14 | 360 | 0.0 | 1.6 | 0.00 | 0.00 | 0.00 | 72 | 1008.5 |
| 20260504043841 | 14 | 360 | 0.0 | 0.0 | 0.00 | 0.00 | 0.00 | 71 | 1008.8 |
| 20260504043347 | 14 | 360 | 0.0 | 0.0 | 0.00 | 0.00 | 0.00 | 71 | 1008.9 |
| 20260504043116 | 14 | 360 | 0.0 | 0.0 | 0.00 | 0.00 | 0.00 | 71 | 1008.7 |
| 20260504042852 | 14 | 360 | 0.0 | 0.0 | 0.00 | 0.00 | 0.00 | 71 | 1008.9 |
| 20260504042358 | 15 | 360 | 0.0 | 1.6 | 0.00 | 0.00 | 0.00 | 71 | 1008.6 |
| 20260504041843 | 15 | 360 | 0.0 | 4.8 | 0.00 | 0.00 | 0.00 | 71 | 1008.5 |
| 20260504041606 | 14 | 360 | 0.0 | 4.8 | 0.00 | 0.00 | 0.00 | 71 | 1008.2 |
| 20260504041348 | 15 | 360 | 1.6 | 4.8 | 0.00 | 0.00 | 0.00 | 71 | 1008.5 |
| 20260504040855 | 15 | 355 | 0.0 | 0.0 | 0.00 | 0.00 | 0.00 | 69 | 1009.0 |
| 20260504040345 | 15 | 355 | 0.0 | 1.6 | 0.00 | 0.00 | 0.00 | 69 | 1009.0 |
| 20260504040010 | 15 | 355 | 0.0 | 1.6 | 0.00 | 0.00 | 0.00 | 69 | 1008.6 |
| 20260504035909 | 15 | 355 | 0.0 | 1.6 | 0.00 | 0.00 | 0.00 | 69 | 1008.8 |
| 20260504035354 | 15 | 355 | 0.0 | 0.0 | 0.00 | 0.00 | 0.00 | 68 | 1008.8 |
| 20260504034841 | 15 | 355 | 0.0 | 0.0 | 0.00 | 0.00 | 0.00 | 68 | 1009.0 |
| 20260504034604 | 15 | 355 | 0.0 | 0.0 | 0.00 | 0.00 | 0.00 | 68 | 1008.8 |
| 20260504034406 | 16 | 355 | 0.0 | 0.0 | 0.00 | 0.00 | 0.00 | 67 | 1008.9 |
| 20260504033851 | 16 | 355 | 0.0 | 0.0 | 0.00 | 0.00 | 0.00 | 68 | 1009.0 |
| 20260504033356 | 16 | 355 | 0.0 | 1.6 | 0.00 | 0.00 | 0.00 | 67 | 1009.0 |
| 20260504033132 | 16 | 355 | 0.0 | 1.6 | 0.00 | 0.00 | 0.00 | 67 | 1008.8 |
| 20260504032841 | 16 | 355 | 0.0 | 1.6 | 0.00 | 0.00 | 0.00 | 67 | 1009.0 |
| 20260504032346 | 16 | 355 | 0.0 | 0.0 | 0.00 | 0.00 | 0.00 | 66 | 1009.1 |
| 20260504031852 | 16 | 355 | 0.0 | 0.0 | 0.00 | 0.00 | 0.00 | 66 | 1009.1 |
| 20260504031616 | 16 | 355 | 0.0 | 0.0 | 0.00 | 0.00 | 0.00 | 66 | 1008.9 |
| 20260504031341 | 16 | 355 | 0.0 | 0.0 | 0.00 | 0.00 | 0.00 | 65 | 1009.2 |
| 20260504030847 | 16 | 355 | 0.0 | 0.0 | 0.00 | 0.00 | 0.00 | 65 | 1009.2 |
| 20260504030408 | 17 | 355 | 0.0 | 0.0 | 0.00 | 0.00 | 0.00 | 65 | 1009.2 |
| 20260504030017 | 17 | 355 | 0.0 | 0.0 | 0.00 | 0.00 | 0.00 | 64 | 1009.0 |
| 20260504025915 | 17 | 355 | 0.0 | 0.0 | 0.00 | 0.00 | 0.00 | 64 | 1009.3 |
| 20260504025341 | 17 | 355 | 0.0 | 0.0 | 0.00 | 0.00 | 0.00 | 63 | 1009.2 |
| 20260504024846 | 17 | 355 | 0.0 | 0.0 | 0.00 | 0.00 | 0.00 | 62 | 1009.2 |
| 20260504024609 | 17 | 355 | 0.0 | 0.0 | 0.00 | 0.00 | 0.00 | 62 | 1009.1 |
| 20260504024351 | 17 | 355 | 0.0 | 0.0 | 0.00 | 0.00 | 0.00 | 62 | 1009.2 |
| 20260504023859 | 17 | 355 | 0.0 | 0.0 | 0.00 | 0.00 | 0.00 | 62 | 1009.1 |
| 20260504023344 | 18 | 355 | 0.0 | 0.0 | 0.00 | 0.00 | 0.00 | 61 | 1009.0 |
| 20260504023108 | 17 | 355 | 0.0 | 0.0 | 0.00 | 0.00 | 0.00 | 60 | 1008.8 |
| 20260504022850 | 18 | 355 | 0.0 | 0.0 | 0.00 | 0.00 | 0.00 | 60 | 1009.0 |
| 20260504022354 | 18 | 355 | 0.0 | 0.0 | 0.00 | 0.00 | 0.00 | 58 | 1009.0 |
| 20260504021845 | 18 | 355 | 0.0 | 0.0 | 0.00 | 0.00 | 0.00 | 58 | 1008.9 |
| 20260504021605 | 18 | 355 | 0.0 | 0.0 | 0.00 | 0.00 | 0.00 | 58 | 1008.8 |
| 20260504021350 | 18 | 355 | 0.0 | 0.0 | 0.00 | 0.00 | 0.00 | 57 | 1009.0 |
| 20260504020855 | 18 | 355 | 0.0 | 0.0 | 0.00 | 0.00 | 0.00 | 56 | 1009.0 |
| 20260504020340 | 19 | 355 | 0.0 | 0.0 | 0.00 | 0.00 | 0.00 | 56 | 1009.0 |
| 20260504020151 | 18 | 355 | 0.0 | 0.0 | 0.00 | 0.00 | 0.00 | 55 | 1008.8 |
| 20260504015847 | 19 | 355 | 0.0 | 0.0 | 0.00 | 0.00 | 0.00 | 55 | 1008.9 |
| 20260504015352 | 19 | 355 | 0.0 | 0.0 | 0.00 | 0.00 | 0.00 | 55 | 1009.0 |
| 20260504014858 | 19 | 355 | 0.0 | 0.0 | 0.00 | 0.00 | 0.00 | 54 | 1009.0 |
| 20260504014616 | 19 | 355 | 0.0 | 0.0 | 0.00 | 0.00 | 0.00 | 54 | 1008.8 |
| 20260504014342 | 19 | 355 | 0.0 | 0.0 | 0.00 | 0.00 | 0.00 | 53 | 1009.1 |
| 20260504013849 | 20 | 355 | 0.0 | 0.0 | 0.00 | 0.00 | 0.00 | 52 | 1009.1 |
| 20260504013355 | 20 | 355 | 0.0 | 0.0 | 0.00 | 0.00 | 0.00 | 53 | 1009.0 |
| 20260504013001 | 19 | 355 | 0.0 | 0.0 | 0.00 | 0.00 | 0.00 | 53 | 1008.8 |
| 20260504012900 | 20 | 355 | 0.0 | 0.0 | 0.00 | 0.00 | 0.00 | 54 | 1009.0 |
| 20260504012345 | 20 | 355 | 0.0 | 1.6 | 0.00 | 0.00 | 0.00 | 53 | 1008.6 |
| 20260504011913 | 20 | 355 | 0.0 | 3.2 | 0.00 | 0.00 | 0.00 | 52 | 1009.0 |
| 20260504011612 | 20 | 355 | 0.0 | 4.8 | 0.00 | 0.00 | 0.00 | 50 | 1008.9 |
| 20260504011356 | 20 | 355 | 0.0 | 4.8 | 0.00 | 0.00 | 0.00 | 50 | 1009.1 |
| 20260504010842 | 20 | 355 | 0.0 | 3.2 | 0.00 | 0.00 | 0.00 | 50 | 1008.9 |
| 20260504010348 | 20 | 355 | 0.0 | 0.0 | 0.00 | 0.00 | 0.00 | 51 | 1009.1 |
| 20260504010015 | 20 | 355 | 0.0 | 0.0 | 0.00 | 0.00 | 0.00 | 51 | 1008.8 |
| 20260504005915 | 20 | 355 | 0.0 | 0.0 | 0.00 | 0.00 | 0.00 | 51 | 1008.9 |
| 20260504005359 | 20 | 355 | 0.0 | 0.0 | 0.00 | 0.00 | 0.00 | 51 | 1008.7 |
| 20260504004845 | 20 | 355 | 0.0 | 0.0 | 0.00 | 0.00 | 0.00 | 51 | 1008.5 |
| 20260504004604 | 20 | 355 | 0.0 | 0.0 | 0.00 | 0.00 | 0.00 | 51 | 1008.4 |
| 20260504004349 | 21 | 355 | 0.0 | 0.0 | 0.00 | 0.00 | 0.00 | 50 | 1008.8 |
| 20260504003854 | 21 | 355 | 0.0 | 0.0 | 0.00 | 0.00 | 0.00 | 50 | 1009.0 |
| 20260504003340 | 21 | 355 | 0.0 | 0.0 | 0.00 | 0.00 | 0.00 | 49 | 1008.9 |
| 20260504003120 | 21 | 355 | 0.0 | 0.0 | 0.00 | 0.00 | 0.00 | 49 | 1008.8 |
| 20260504002846 | 21 | 355 | 0.0 | 0.0 | 0.00 | 0.00 | 0.00 | 49 | 1009.0 |
| 20260504002413 | 21 | 355 | 0.0 | 0.0 | 0.00 | 0.00 | 0.00 | 49 | 1009.0 |
| 20260504001858 | 21 | 355 | 0.0 | 0.0 | 0.00 | 0.00 | 0.00 | 49 | 1009.0 |
| 20260504001618 | 21 | 355 | 0.0 | 0.0 | 0.00 | 0.00 | 0.00 | 49 | 1008.9 |
| 20260504001344 | 21 | 355 | 0.0 | 0.0 | 0.00 | 0.00 | 0.00 | 49 | 1009.2 |
| 20260504000910 | 21 | 355 | 0.0 | 0.0 | 0.00 | 0.00 | 0.00 | 48 | 1009.3 |
| 20260504000355 | 21 | 355 | 0.0 | 0.0 | 0.00 | 0.00 | 0.00 | 48 | 1009.0 |
| 20260504000145 | 21 | 355 | 0.0 | 0.0 | 0.00 | 0.00 | 0.00 | 48 | 1009.0 |
| 20260503235842 | 21 | 355 | 0.0 | 4.8 | 0.00 | 0.00 | 0.00 | 48 | 1009.1 |
| 20260503235349 | 21 | 355 | 0.0 | 4.8 | 0.00 | 0.00 | 0.00 | 48 | 1009.1 |
| 20260503234856 | 22 | 355 | 0.0 | 0.0 | 0.00 | 0.00 | 0.00 | 48 | 1009.2 |
| 20260503234617 | 21 | 355 | 0.0 | 0.0 | 0.00 | 0.00 | 0.00 | 48 | 1009.0 |
| 20260503234343 | 22 | 355 | 0.0 | 0.0 | 0.00 | 0.00 | 0.00 | 48 | 1008.8 |
| 20260503233847 | 22 | 355 | 0.0 | 1.6 | 0.00 | 0.00 | 0.00 | 47 | 1009.0 |
| 20260503233415 | 22 | 355 | 0.0 | 1.6 | 0.00 | 0.00 | 0.00 | 46 | 1009.1 |
| 20260503233113 | 21 | 355 | 0.0 | 1.6 | 0.00 | 0.00 | 0.00 | 47 | 1009.0 |
| 20260503232859 | 22 | 355 | 0.0 | 1.6 | 0.00 | 0.00 | 0.00 | 46 | 1009.1 |
| 20260503232346 | 22 | 355 | 0.0 | 3.2 | 0.00 | 0.00 | 0.00 | 47 | 1009.0 |
| 20260503231914 | 22 | 355 | 0.0 | 6.4 | 0.00 | 0.00 | 0.00 | 46 | 1009.1 |
| 20260503231612 | 22 | 355 | 0.0 | 6.4 | 0.00 | 0.00 | 0.00 | 46 | 1008.9 |
| 20260503231358 | 22 | 348 | 0.0 | 3.2 | 0.00 | 0.00 | 0.00 | 47 | 1009.1 |
| 20260503230843 | 22 | 347 | 0.0 | 6.4 | 0.00 | 0.00 | 0.00 | 48 | 1009.1 |
| 20260503230349 | 22 | 347 | 0.0 | 6.4 | 0.00 | 0.00 | 0.00 | 47 | 1009.3 |
| 20260503230140 | 22 | 347 | 0.0 | 6.4 | 0.00 | 0.00 | 0.00 | 47 | 1009.1 |
| 20260503225856 | 22 | 355 | 0.0 | 6.4 | 0.00 | 0.00 | 0.00 | 48 | 1009.3 |
| 20260503225342 | 22 | 350 | 1.6 | 6.4 | 0.00 | 0.00 | 0.00 | 48 | 1009.1 |
| 20260503224848 | 22 | 15 | 1.6 | 6.4 | 0.00 | 0.00 | 0.00 | 48 | 1009.1 |
| 20260503224615 | 22 | 290 | 0.0 | 3.2 | 0.00 | 0.00 | 0.00 | 48 | 1009.0 |
| 20260503224354 | 22 | 290 | 0.0 | 4.8 | 0.00 | 0.00 | 0.00 | 48 | 1009.2 |
| 20260503223900 | 22 | 290 | 1.6 | 4.8 | 0.00 | 0.00 | 0.00 | 48 | 1009.4 |
| 20260503223345 | 22 | 261 | 0.0 | 4.8 | 0.00 | 0.00 | 0.00 | 48 | 1009.3 |
| 20260503223114 | 22 | 261 | 0.0 | 4.8 | 0.00 | 0.00 | 0.00 | 48 | 1009.1 |
| 20260503222850 | 22 | 261 | 1.6 | 4.8 | 0.00 | 0.00 | 0.00 | 48 | 1009.2 |
| 20260503222356 | 22 | 342 | 0.0 | 3.2 | 0.00 | 0.00 | 0.00 | 49 | 1009.4 |
| 20260503221842 | 22 | 342 | 0.0 | 4.8 | 0.00 | 0.00 | 0.00 | 48 | 1009.1 |
| 20260503221623 | 22 | 342 | 0.0 | 4.8 | 0.00 | 0.00 | 0.00 | 48 | 1009.3 |
| 20260503221347 | 22 | 342 | 1.6 | 4.8 | 0.00 | 0.00 | 0.00 | 48 | 1009.5 |
| 20260503220914 | 22 | 237 | 1.6 | 4.8 | 0.00 | 0.00 | 0.00 | 48 | 1009.3 |
| 20260503220359 | 22 | 237 | 0.0 | 4.8 | 0.00 | 0.00 | 0.00 | 48 | 1009.2 |
| 20260503220150 | 22 | 235 | 0.0 | 4.8 | 0.00 | 0.00 | 0.00 | 48 | 1008.7 |
| 20260503215846 | 22 | 240 | 1.6 | 4.8 | 0.00 | 0.00 | 0.00 | 47 | 1008.3 |
| 20260503215351 | 22 | 242 | 1.6 | 4.8 | 0.00 | 0.00 | 0.00 | 47 | 1009.0 |
| 20260503214857 | 22 | 242 | 1.6 | 6.4 | 0.00 | 0.00 | 0.00 | 48 | 1009.1 |
| 20260503214500 | 22 | 242 | 1.6 | 6.4 | 0.00 | 0.00 | 0.00 | 47 | 1009.2 |
| 20260503214400 | 22 | 244 | 3.2 | 6.4 | 0.00 | 0.00 | 0.00 | 46 | 1009.4 |
| 20260503213845 | 22 | 262 | 1.6 | 6.4 | 0.00 | 0.00 | 0.00 | 46 | 1009.4 |
| 20260503213352 | 22 | 277 | 1.6 | 6.4 | 0.00 | 0.00 | 0.00 | 46 | 1009.4 |
| 20260503212919 | 22 | 219 | 1.6 | 9.7 | 0.00 | 0.00 | 0.00 | 47 | 1009.2 |
| 20260503212343 | 22 | 220 | 3.2 | 12.9 | 0.00 | 0.00 | 0.00 | 46 | 1009.4 |
| 20260503211848 | 22 | 262 | 3.2 | 12.9 | 0.00 | 0.00 | 0.00 | 46 | 1009.4 |
| 20260503211608 | 22 | 248 | 3.2 | 12.9 | 0.00 | 0.00 | 0.00 | 45 | 1009.6 |
| 20260503211356 | 22 | 251 | 4.8 | 12.9 | 0.00 | 0.00 | 0.00 | 45 | 1009.6 |
| 20260503210840 | 22 | 232 | 1.6 | 11.3 | 0.00 | 0.00 | 0.00 | 46 | 1009.4 |
| 20260503210346 | 22 | 252 | 3.2 | 11.3 | 0.00 | 0.00 | 0.00 | 45 | 1009.6 |
| 20260503210140 | 22 | 223 | 1.6 | 11.3 | 0.00 | 0.00 | 0.00 | 46 | 1009.6 |
| 20260503205855 | 22 | 247 | 3.2 | 12.9 | 0.00 | 0.00 | 0.00 | 44 | 1009.8 |
| 20260503205401 | 22 | 274 | 4.8 | 12.9 | 0.00 | 0.00 | 0.00 | 44 | 1009.8 |
| 20260503204844 | 22 | 249 | 3.2 | 12.9 | 0.00 | 0.00 | 0.00 | 45 | 1010.0 |
| 20260503204607 | 22 | 317 | 3.2 | 17.7 | 0.00 | 0.00 | 0.00 | 44 | 1010.0 |
| 20260503204348 | 22 | 237 | 4.8 | 17.7 | 0.00 | 0.00 | 0.00 | 45 | 1010.1 |
| 20260503203854 | 22 | 297 | 3.2 | 8.0 | 0.00 | 0.00 | 0.00 | 45 | 1010.1 |
| 20260503203341 | 22 | 271 | 4.8 | 8.0 | 0.00 | 0.00 | 0.00 | 45 | 1010.1 |
| 20260503203104 | 22 | 258 | 1.6 | 11.3 | 0.00 | 0.00 | 0.00 | 45 | 1010.0 |
| 20260503202907 | 22 | 209 | 1.6 | 14.5 | 0.00 | 0.00 | 0.00 | 45 | 1010.1 |
| 20260503202350 | 22 | 225 | 4.8 | 16.1 | 0.00 | 0.00 | 0.00 | 44 | 1010.1 |
| 20260503201918 | 22 | 275 | 4.8 | 16.1 | 0.00 | 0.00 | 0.00 | 44 | 1010.0 |
| 20260503201617 | 22 | 245 | 3.2 | 16.1 | 0.00 | 0.00 | 0.00 | 46 | 1010.0 |
| 20260503201341 | 22 | 225 | 3.2 | 16.1 | 0.00 | 0.00 | 0.00 | 47 | 1010.0 |
| 20260503200847 | 22 | 237 | 1.6 | 11.3 | 0.00 | 0.00 | 0.00 | 46 | 1010.0 |
| 20260503200352 | 22 | 265 | 4.8 | 12.9 | 0.00 | 0.00 | 0.00 | 45 | 1010.1 |
| 20260503200001 | 22 | 269 | 1.6 | 9.7 | 0.00 | 0.00 | 0.00 | 45 | 1010.1 |
| 20260503195900 | 22 | 267 | 3.2 | 9.7 | 0.00 | 0.00 | 0.00 | 45 | 1010.1 |
| 20260503195406 | 22 | 319 | 4.8 | 14.5 | 0.00 | 0.00 | 0.00 | 44 | 1010.5 |
| 20260503194851 | 22 | 248 | 6.4 | 16.1 | 0.00 | 0.00 | 0.00 | 43 | 1010.5 |
| 20260503194627 | 22 | 251 | 4.8 | 16.1 | 0.00 | 0.00 | 0.00 | 44 | 1010.5 |
| 20260503194354 | 22 | 246 | 6.4 | 16.1 | 0.00 | 0.00 | 0.00 | 44 | 1010.4 |
| 20260503193858 | 22 | 246 | 4.8 | 16.1 | 0.00 | 0.00 | 0.00 | 44 | 1010.7 |
| 20260503193359 | 22 | 239 | 3.2 | 16.1 | 0.00 | 0.00 | 0.00 | 45 | 1010.7 |
| 20260503193120 | 22 | 250 | 4.8 | 16.1 | 0.00 | 0.00 | 0.00 | 45 | 1010.6 |
| 20260503192845 | 22 | 250 | 4.8 | 16.1 | 0.00 | 0.00 | 0.00 | 46 | 1010.7 |